Weather in Aksay

Kazakhstan     51°09′55″N   53°01′18″E
В апреле 2022 года жителям России запретили посещать сайт meteo.paraplan.net по решению Генеральной прокуратуры. Аудитория сайта уменьшилась в 10 раз. Владельцы сайта не видят смысла в поддержке погодного сервера в таких условиях. Сайт будет закрыт в октябре.
temp.,
°C
wind,
m/s
gust,
m/s
humid.,
%
clouds,
%
prec.,
mm/h
press.,
hPa
HPBL,
m
6 october, thu
thu623:00+15sse6162458 0.0 1023343
02:00+16s71421100 0.0 1022398
05:00+15s71322100 0.0 1021446
08:00+14ssw5925100 0.0 1021362
11:00+13w3443100 0.0 1020302
14:00+13s446494 0.5 1021540
17:00+15sse5658100 0.5 1019434
20:00+13ssw4565100 0.2 1020151
7 october, fri
fri723:00+13wsw2360100 0.2 102098
02:00+10wnw356896 0.1 1019128
05:00+10wnw3666100 0.3 1020305
08:00+7wnw36795 0.1 1020145
11:00+11nw56585 0.1 1021810
14:00+13wnw56455 0.0 10211475
17:00+14wnw57395 0.0 10201489
20:00+12w344988 0.0 102081
8 october, sat
sat823:00+13sw4951100 0.0 1020416
02:00+13w59645 0.1 1020422
05:00+10wnw48879 0.1 1021196
08:00+8wnw4109039 0.0 1022268
11:00+14wnw57490 0.0 1024977
14:00+16wnw78390 0.0 10241510
17:00+16nw67360 0.0 10251473
20:00+12nw33500 0.0 102632
9 october, sun
sun923:00+10nnw22590 0.0 102710
02:00+8w11675 0.0 102710
05:00+8sw11735 0.0 102810
08:00+8ssw226748 0.0 102810
11:00+14ssw34465 0.0 1029394
14:00+17ssw45325 0.0 10271186
17:00+18ssw55285 0.0 10261228
20:00+13sse45385 0.0 102646
10 october, mon
mon1023:00+11sse46425 0.0 102685
02:00+11sse48445 0.0 1025116
05:00+10sse511479 0.0 1024170
08:00+9sse512535 0.0 1024193
11:00+15s8123835 0.0 1023567
14:00+18s81025100 0.0 10211081
17:00+18s6929100 0.0 10191136
20:00+15sse3433100 0.0 101959